Regional Weather Roundup
Issued by NWS

Home | Current Version | Previous Version | Graphics & Text | Print | Product List | Glossary On
Versions: 1 2 3 4 5 6 7 8 9 10 11 12 13 14 15 16 17 18 19 20 21 22 23 24 25 26 27 28 29 30 31 32 33 34 35 36 37 38 39 40 41 42 43 44 45 46 47 48 49 50
000
ASUS43 KMKX 012259
RWRWI

WISCONSIN REGIONAL WEATHER ROUNDUP
NATIONAL WEATHER SERVICE MILWAUKEE/SULLIVAN WI
600 PM CDT WED APR 01 2015

NOTE: "FAIR" INDICATES FEW OR NO CLOUDS BELOW 12,000 FEET WITH NO
SIGNIFICANT WEATHER AND/OR OBSTRUCTIONS TO VISIBILITY.

WIZ001-002-006>008-014>016-023>028-020000-
NORTHWEST WISCONSIN

CITY           SKY/WX    TMP DP  RH WIND       PRES   REMARKS
SUPERIOR ARPT  CLOUDY    35  33  92 E9        29.51F WCI  27
ASHLAND        CLOUDY    66  38  35 S12G23    29.48F
HAYWARD        CLOUDY    63  38  39 S13       29.54F
SIREN          CLOUDY    70  37  29 S7        29.50F
CUMBERLAND     CLOUDY    70  34  26 S14       29.54S
RICE LAKE      CLOUDY    74  32  21 S22G28    29.55F
CHETEK         CLOUDY    75  36  24 S20G31    29.54F
LADYSMITH      CLOUDY    66  37  34 SE8       29.59F
EAU CLAIRE     NOT AVBL
MENOMONIE      MOSUNNY   78  31  17 S28G37    29.55F
NEW RICHMOND   PTSUNNY   77  33  20 S31G45    29.50F
OSCEOLA        CLOUDY    78  36  21 S20G32    29.51F
$$

WIZ003>005-009-010-017-018-020000-
NORTH CENTRAL WISCONSIN

CITY           SKY/WX    TMP DP  RH WIND       PRES   REMARKS
MANITOWISH WTR CLOUDY    55  37  51 SE14G22   29.58F
ARBOR VITAE    CLOUDY    57  36  45 SE15      29.61F
WOODRUFF       CLOUDY    57  36  45 SE15      29.61F
RHINELANDER    CLOUDY    57  36  45 SE10      29.68F
EAGLE RIVER    DRIZZLE   53  33  47 S7        29.68F
LAND O LAKES   LGT RAIN  51  37  56 S12G17    29.67F
PHILLIPS       CLOUDY    59  38  45 SE12      29.59F
TOMAHAWK       CLOUDY    59  36  41 CALM      29.67F
MEDFORD        CLOUDY    67  42  39 SE9       29.63F
MERRILL        CLOUDY    63  38  40 SE7       29.67F
$$

WIZ029-030-035-036-043>047-020000-
CENTRAL WISCONSIN

CITY           SKY/WX    TMP DP  RH WIND       PRES   REMARKS
WAUSAU         CLOUDY    68  37  32 SE9       29.64F
MOSINEE        SUNNY     68  36  30 S23G29    29.67F
MARSHFIELD     PTSUNNY   75  34  22 SW21G35   29.64F
STEVENS POINT  CLOUDY    71  36  27 S16G26    29.68F
WAUPACA        PTSUNNY   73  34  23 S14G24    29.71F
WAUTOMA        NOT AVBL
WISC RAPIDS    PTSUNNY   75  31  19 S21G29    29.68F
CAMP DOUGLAS   NOT AVBL
$$

WIZ011>013-019>022-031-037>040-048>050-020000-
NORTHEAST WISCONSIN

CITY           SKY/WX    TMP DP  RH WIND       PRES   REMARKS
ANTIGO         CLOUDY    55  39  55 SE10      29.72F
SHAWANO        CLOUDY    59  40  48 SE7       29.74F
OCONTO         CLOUDY    49  36  60 S10G18    29.77F
STURGEON BAY   CLOUDY    46  36  66 S17G25    29.80F
GREEN BAY      PTSUNNY   56  41  57 S15       29.76F
MANITOWOC      NOT AVBL
APPLETON       MOSUNNY   61  37  41 SE17G23   29.75F
CLINTONVILLE   CLOUDY    59  37  44 SE17G23   29.73F
OSHKOSH        MOSUNNY   63  41  44 SE15      29.74F
$$

WIZ032>034-041-042-053>061-020000-
SOUTHWEST WISCONSIN

CITY           SKY/WX    TMP DP  RH WIND       PRES   REMARKS
LA CROSSE      PTSUNNY   78  32  18 S17G30    29.62F
SPARTA         MOSUNNY   78  29  16 S17G24    29.66F
VIROQUA        PTSUNNY   73  31  21 S21G35    29.69F
BOSCOBEL         N/A     78  31  17 S20G31    29.70F
PRAIRIE DU CHI SUNNY     77  26  15 S20G25    29.69F
PLATTEVILLE    SUNNY     75  34  22 S21G38    29.75S
$$

WIZ056-057-062-063-064-067-068-020000-
SOUTH CENTRAL WISCONSIN

CITY           SKY/WX    TMP DP  RH WIND       PRES   REMARKS
REEDSBURG      SUNNY     74  36  24 S21G28    29.71F
BARABOO/DELLS  SUNNY     74  31  20 S24G33    29.72F
LONE ROCK      NOT AVBL
MINERAL POINT  SUNNY     77  28  16 S18G29    29.75S
MADISON        PTSUNNY   74  33  22 S22G33    29.76S
MIDDLETON      SUNNY     76  27  15 S20G29    29.76S
WATERTOWN      SUNNY     73  37  26 S17G24    29.78F
MONROE         SUNNY     73  36  25 S25G35    29.78S
JANESVILLE     SUNNY     75  28  17 S26G32    29.79F
$$

WIZ051-052-058>065-066-070>072-020000-
SOUTHEAST WISCONSIN

CITY           SKY/WX    TMP DP  RH WIND       PRES   REMARKS
MILWAUKEE      PTSUNNY   60  35  39 S13G22    29.84F
WAUKESHA       MOSUNNY   68  37  32 SE12      29.82F
MILWAUKEE/TIMM SUNNY     64  34  32 SE13      29.83F
RACINE         SUNNY     53  35  50 S16       29.86F
BURLINGTON     SUNNY     71  36  27 S17G24    29.82F
KENOSHA        SUNNY     62  39  42 SE10      29.84F
FOND DU LAC    MOSUNNY   64  40  41 SE18      29.76F
SHEBOYGAN      MOSUNNY   52  37  56 S12       29.82F
WEST BEND      MOSUNNY   63  34  34 SE12      29.82F
JUNEAU         SUNNY     72  38  28 S17G30    29.79F
$$

LSZ147-162-020000-
LAKE SUPERIOR

STATION/POSITION TIME  TEMP    WIND        PRES    WAVE
                       AIR SEA DIR/SP/G            HT/PER
                 (UTC) (F)     (DEG/KT/KT) (MB)    (FT/S)
DEVILS ISLAND    2200   37      50/ 11/ 12 1001.1F
PORT WING        2240   35      40/ 13/ 18 1000.0F
SAXON HARBOR     2222   63     200/  8      999.3F
$$

LMZ867-665-643>646-020000-
LAKE MICHIGAN

STATION/POSITION TIME  TEMP    WIND        PRES    WAVE
                       AIR SEA DIR/SP/G            HT/PER
                 (UTC) (F)     (DEG/KT/KT) (MB)    (FT/S)
NORTHPORT PIER   2200   37     150/ 11/ 16 1010.5F
KEWAUNEE LAKESHO 2200   39     180/ 16/ 19 1010.0F
SHEBOYGAN LAKESH 2200   38     190/ 11/ 12 1012.0F
PORT WASHINGTON  2200   44     190/  5/  9 1011.5F
MILWAUKEE LAKESH 2200   42     150/ 17/ 18   N/A
KENOSHA   LAKESH 2200   46     180/ 14/ 17 1011.5F
$$

TC  - TEMPERATURE IN CELSIUS
VSB - VISIBILITY IN STATUTE MILES
WCI - WIND CHILL INDEX
HX  - HEAT INDEX



USA.gov is the U.S. government's official web portal to all federal, state and local government web resources and services.